User: anonymous
Location: Unspecified
(0.0000°N, 0.0000°E)
Time: 06:59:34
(UTC+00:00)
Language:

Courier 1B - Orbit

View from above orbital plane
View from above orbital plane
View from above satellite
View from above satellite

Ground track
Ground track

The orbit data is extracted from the following two-line orbital elements,

1 00058U 60013A   14244.76102326  .00000101  00000-0  19953-4 0  7503
2 00058 028.3301 027.8319 0165036 193.6689 165.9348 13.46279312653823
Epoch (UTC): 01 September 2014 18:15:52
Eccentricity: 0.0165036
inclination: 28.3301°
perigee height: 963 km
apogee height: 1209 km
right ascension of ascending node: 27.8319°
argument of perigee: 193.6689°
revolutions per day: 13.46279312
mean anomaly at epoch: 165.9348°
orbit number at epoch: 65382

The dashed part of the orbit path shows where the satellite is in the earth's shadow,  

DLR